CZ-6A DEB, 61290

Orbit data source: Space-Track

CZ-6A DEB, 61290 is space debris in LEO originally from a launch on Tue, 06 Aug 2024 UTC launched from the Taiyaun Space Center, China (TSC). Debris objects in space refer to the collection of defunct objects orbiting the Earth. Examples of debris include non-operational satellites, rocket bodies, and fragments generated from explosions, collisions, or faulty payload assembly.

Loading next visibility...
Identifier
61290, 2024-140TB
Orbit
LEO
Country
Flag of CNCN / PRC
Related business
Manufacturer
SAST
Mission
Spacecraft
Bus & Motor
Unknown
Mass
Unknown
Launch date (UTC)
2024-08-06 (2 years ago)
Launch vehicle
Unknown
Launch site
Taiyaun Space Center, China (TSC)
Object type
Payload
Rocket body
Debris
Shape & HBR
Unknown shape, 0.1 m
Radar Cross Section
Medium (>0.1 m² and <1 m²)

Expand to show TLE details & history
Last TLE update: 14 hours ago

TLE from 14 hours ago
0 CZ-6A DEB
1 61290U 24140TB  26171.27403161  .00000270  00000-0  10840-3 0  9995
2 61290  88.9990 273.4795 0020582 171.9592 188.1935 14.25211894 94095
Epoch: 2026-06-20T06:34Z
TLE epoch observation values (Epoch: 2026-06-20T06:34:36.331Z)
Latitude
-0.00001°
Longitude
-93.66289°
Altitude
825.484 km
Speed
7.433 km/s
True Right ascension
18h 13m 55s
True Declination
0° 00' 00"
Sunlit
Object was in full shadow at epoch
Visualization orbit readout
Latitude
Unknown
Longitude
Unknown
Altitude
Unknown
Speed
Unknown
Apparent Right ascension
Unknown
Apparent Declination
Unknown
Sunlit
N/A
Visualization observer readout
Local Sidereal Time
07:23:53
Azimuth
Unknown
Elevation
Unknown
Doppler factor
Unknown
Orbital elements
Apogee altitude
819.508 km
Perigee altitude
789.94 km
Semi-major axis
7,182.861 km
Eccentricity
0.00206
Inclination
88.999°
RAAN
273.4795°
Arg. of periapsis
171.9592°
True anomaly
188.15997°
Mean anomaly
188.1935°
Eccentric anomaly
188.17673°
Mean motion
3.56531 °/min
Orbital period
100.97 mins
BSTAR
0.0001084
Loading maneuver chart data...
Computing Atmospheric mass density...
Loading historical data...
Loading historical data...
Loading historical data...
Loading historical data...
Loading historical data...
Loading historical data...
Loading historical data...

Documentation

Showing up to 5 results
|